Weather History for K08D - December, 2013

Change the Weather History Date:

Sunday, December 1, 2013

  Actual Average (KMOT) Record (KMOT)
Temperature  
Mean Temperature 21 °F 20 °F  
Max Temperature 28 °F 28 °F 54 °F (1969)
Min Temperature 14 °F 12 °F -25 °F (1926)
Degree Days  
Heating Degree Days 44 45  
Month to date heating degree days 45  
Since 1 July heating degree days 2103  
Moisture  
Dew Point 24 °F    
Average Humidity 100    
Maximum Humidity 100    
Minimum Humidity 100    
Precipitation  
Precipitation 0.02 in 0.01 in 0.11 in (1955)
Month to date precipitation 0.01  
Year to date precipitation 16.82  
Sea Level Pressure  
Sea Level Pressure 29.85 in    
Wind  
Wind Speed 5 mph (SE)    
Max Wind Speed 12 mph    
Max Gust Speed -    
Visibility 6 miles    
Events Fog , Rain , Snow    
T = Trace of Precipitation, MM = Missing Value Source: NWS Daily Summary

Daily Weather History Graph

Daily Weather History Graph

Search for Another Location

Airport or City:

Trip Planner

Search our weather history database for the weather conditions in past years. The results will help you decide how hot, cold, wet, or windy it might be!

Date:

Astronomy

Dec. 01, 2013 Rise Set
Actual Time 8:19 AM CST 4:57 PM CST
Civil Twilight 7:44 AM CST 5:33 PM CST
Nautical Twilight 7:04 AM CST 6:12 PM CST
Astronomical Twilight 6:27 AM CST 6:50 PM CST
Moon 6:34 AM CST (12/1) 4:14 PM CST (12/1)
Length of Visible Light 9h 49m
Length of Day
8h 37m
Waning Crescent, 2% of the Moon is Illuminated
Dec 1
Waning Crescent
Dec 2
New
Dec 9
First Quarter
Dec 17
Full
Dec 25
Last Quarter

Hourly Weather History & Observations

Time (CST) Temp. Windchill Dew Point Humidity Pressure Visibility Wind Dir Wind Speed Gust Speed Precip Events Conditions
12:15 AM 14.0 °F - 14.0 °F 100% 30.09 in 10.0 mi Calm Calm - N/A   Clear
12:35 AM 14.0 °F - 14.0 °F 100% 30.08 in 10.0 mi Calm Calm - N/A   Clear
12:55 AM 14.0 °F - 14.0 °F 100% 30.09 in 10.0 mi Calm Calm - N/A   Clear
1:15 AM 14.0 °F - 14.0 °F 100% 30.09 in 10.0 mi Calm Calm - N/A   Partly Cloudy
1:35 AM 15.8 °F - 15.8 °F 100% 30.08 in 10.0 mi Calm Calm - N/A   Scattered Clouds
1:55 AM 15.8 °F - 15.8 °F 100% 30.08 in 10.0 mi Calm Calm - N/A   Mostly Cloudy
2:15 AM 17.6 °F 9.3 °F 17.6 °F 100% 30.06 in 10.0 mi East 5.8 mph - N/A   Overcast
2:35 AM 17.6 °F 8.2 °F 17.6 °F 100% 30.06 in 10.0 mi East 6.9 mph - N/A   Overcast
2:55 AM 15.8 °F 8.6 °F 15.8 °F 100% 30.05 in 10.0 mi ESE 4.6 mph - N/A   Overcast
3:15 AM 17.6 °F 8.2 °F 17.6 °F 100% 30.04 in 10.0 mi ESE 6.9 mph - N/A   Overcast
3:35 AM 17.6 °F 12.3 °F 17.6 °F 100% 30.05 in 10.0 mi ESE 3.5 mph - N/A   Overcast
3:55 AM 17.6 °F 9.3 °F 17.6 °F 100% 30.04 in 10.0 mi East 5.8 mph - N/A   Overcast
4:15 AM 17.6 °F 10.7 °F 17.6 °F 100% 30.03 in 10.0 mi East 4.6 mph - N/A   Overcast
4:35 AM 19.4 °F 11.5 °F 19.4 °F 100% 30.02 in 10.0 mi ESE 5.8 mph - N/A   Overcast
4:55 AM 17.6 °F 8.2 °F 17.6 °F 100% 30.01 in 10.0 mi SE 6.9 mph - N/A   Overcast
5:15 AM 17.6 °F 8.2 °F 17.6 °F 100% 30.00 in 10.0 mi SE 6.9 mph - N/A   Overcast
5:35 AM 19.4 °F 10.4 °F 19.4 °F 100% 30.00 in 10.0 mi SE 6.9 mph - N/A Snow Light Snow
5:55 AM 19.4 °F 11.5 °F 19.4 °F 100% 29.99 in 10.0 mi ESE 5.8 mph - N/A   Overcast
6:15 AM 19.4 °F 11.5 °F 19.4 °F 100% 29.98 in 10.0 mi SE 5.8 mph - N/A   Overcast
6:35 AM 21.2 °F 13.6 °F 21.2 °F 100% 29.97 in 10.0 mi ESE 5.8 mph - N/A   Overcast
6:55 AM 23.0 °F 13.9 °F 23.0 °F 100% 29.97 in 10.0 mi SE 8.1 mph - N/A   Overcast
7:15 AM 23.0 °F 14.7 °F 23.0 °F 100% 29.97 in 10.0 mi ESE 6.9 mph - N/A   Overcast
7:35 AM 23.0 °F 15.8 °F 23.0 °F 100% 29.96 in 10.0 mi SE 5.8 mph - N/A   Overcast
7:55 AM 23.0 °F 14.7 °F 23.0 °F 100% 29.95 in 5.0 mi ESE 6.9 mph - N/A Snow Light Snow
8:15 AM 24.8 °F 16.1 °F 24.8 °F 100% 29.94 in 2.5 mi SE 8.1 mph - N/A Snow Light Snow
8:35 AM 23.0 °F 12.4 °F 23.0 °F 100% 29.93 in 8.0 mi SE 10.4 mph - 0.02 in Snow Light Snow
8:55 AM 23.0 °F 13.9 °F 23.0 °F 100% 29.93 in 10.0 mi SE 8.1 mph - 0.02 in   Overcast
9:15 AM 24.8 °F 16.9 °F 24.8 °F 100% 29.92 in 10.0 mi SE 6.9 mph - N/A   Overcast
9:35 AM 24.8 °F 14.0 °F 24.8 °F 100% 29.91 in 7.0 mi SE 11.5 mph - N/A   Overcast
9:55 AM 24.8 °F 14.6 °F 24.8 °F 100% 29.90 in 9.0 mi SE 10.4 mph - N/A   Overcast
10:15 AM 24.8 °F 15.3 °F 24.8 °F 100% 29.89 in 9.0 mi SE 9.2 mph - N/A   Scattered Clouds
10:35 AM 26.6 °F 17.5 °F 26.6 °F 100% 29.89 in 10.0 mi SE 9.2 mph - N/A   Scattered Clouds
10:55 AM 26.6 °F 16.8 °F 26.6 °F 100% 29.88 in 10.0 mi SE 10.4 mph - N/A   Mostly Cloudy
11:15 AM 26.6 °F 17.5 °F 26.6 °F 100% 29.88 in 9.0 mi SE 9.2 mph - N/A   Overcast
11:35 AM 28.4 °F 21.2 °F 28.4 °F 100% 29.87 in 4.0 mi SE 6.9 mph - N/A Rain Light Freezing Rain
11:55 AM 28.4 °F 20.4 °F 28.4 °F 100% 29.86 in 7.0 mi SE 8.1 mph - N/A   Overcast
12:15 PM 28.4 °F 19.7 °F 28.4 °F 100% 29.84 in 5.0 mi SE 9.2 mph - N/A   Overcast
12:35 PM 28.4 °F 20.4 °F 28.4 °F 100% 29.83 in 5.0 mi SE 8.1 mph - N/A   Overcast
12:55 PM 28.4 °F 20.4 °F 28.4 °F 100% 29.82 in 8.0 mi South 8.1 mph - N/A   Overcast
1:15 PM 28.4 °F 20.4 °F 28.4 °F 100% 29.81 in 5.0 mi SSE 8.1 mph - N/A   Overcast
1:35 PM 28.4 °F 20.4 °F 28.4 °F 100% 29.80 in 4.0 mi South 8.1 mph - N/A   Overcast
1:55 PM 28.4 °F 19.7 °F 28.4 °F 100% 29.78 in 3.0 mi SSE 9.2 mph - N/A   Overcast
2:15 PM 28.4 °F 20.4 °F 28.4 °F 100% 29.77 in 3.0 mi SSE 8.1 mph - N/A   Overcast
2:35 PM 28.4 °F 19.7 °F 28.4 °F 100% 29.76 in 3.0 mi SSE 9.2 mph - N/A   Overcast
2:55 PM 28.4 °F 20.4 °F 28.4 °F 100% 29.76 in 2.0 mi SE 8.1 mph - N/A   Overcast
3:15 PM 28.4 °F 21.2 °F 28.4 °F 100% 29.75 in 3.0 mi SE 6.9 mph - N/A   Overcast
3:35 PM 28.4 °F 20.4 °F 28.4 °F 100% 29.75 in 3.0 mi SSE 8.1 mph - N/A   Overcast
3:55 PM 28.4 °F 19.7 °F 28.4 °F 100% 29.75 in 1.8 mi SSE 9.2 mph - N/A   Overcast
4:15 PM 28.4 °F 20.4 °F 28.4 °F 100% 29.74 in 2.5 mi SSE 8.1 mph - N/A   Overcast
4:35 PM 28.4 °F 21.2 °F 28.4 °F 100% 29.73 in 2.5 mi SE 6.9 mph - N/A   Overcast
4:55 PM 28.4 °F 20.4 °F 28.4 °F 100% 29.73 in 2.5 mi SE 8.1 mph - N/A   Overcast
5:15 PM 28.4 °F 20.4 °F 28.4 °F 100% 29.72 in 0.5 mi ESE 8.1 mph - N/A Fog Light Freezing Fog
5:35 PM 28.4 °F 19.7 °F 28.4 °F 100% 29.72 in 0.2 mi SE 9.2 mph - N/A Fog Light Freezing Fog
5:55 PM 28.4 °F 19.7 °F 28.4 °F 100% 29.72 in 0.2 mi SE 9.2 mph - N/A Fog Light Freezing Fog
6:15 PM 28.4 °F 21.2 °F 28.4 °F 100% 29.72 in 0.2 mi SE 6.9 mph - N/A Fog Light Freezing Fog
6:35 PM 28.4 °F 20.4 °F 28.4 °F 100% 29.72 in 0.2 mi SE 8.1 mph - N/A Fog Light Freezing Fog
6:55 PM 28.4 °F 20.4 °F 28.4 °F 100% 29.71 in 0.2 mi SE 8.1 mph - N/A Fog Light Freezing Fog
7:15 PM 28.4 °F 20.4 °F 28.4 °F 100% 29.70 in 0.2 mi ESE 8.1 mph - N/A Fog Light Freezing Fog
7:35 PM 28.4 °F 21.2 °F 28.4 °F 100% 29.69 in 0.2 mi ESE 6.9 mph - N/A Fog Light Freezing Fog
7:55 PM 28.4 °F 21.2 °F 28.4 °F 100% 29.69 in 0.2 mi SE 6.9 mph - N/A Fog Light Freezing Fog
8:15 PM 28.4 °F 21.2 °F 28.4 °F 100% 29.68 in 0.5 mi ESE 6.9 mph - N/A Fog Light Freezing Fog
8:35 PM 28.4 °F 20.4 °F 28.4 °F 100% 29.68 in 0.2 mi ESE 8.1 mph - N/A Fog Light Freezing Fog
8:55 PM 26.6 °F 20.0 °F 26.6 °F 100% 29.68 in 0.2 mi East 5.8 mph - N/A Fog Light Freezing Fog
9:15 PM 26.6 °F 18.2 °F 26.6 °F 100% 29.67 in 0.2 mi East 8.1 mph - N/A Fog Light Freezing Fog
9:35 PM 26.6 °F 18.2 °F 26.6 °F 100% 29.66 in 0.2 mi ESE 8.1 mph - N/A Fog Light Freezing Fog
9:55 PM 26.6 °F 17.5 °F 26.6 °F 100% 29.66 in 0.5 mi ESE 9.2 mph - N/A Fog Light Freezing Fog
10:15 PM 26.6 °F 19.1 °F 26.6 °F 100% 29.65 in 0.8 mi East 6.9 mph - N/A   Overcast
10:35 PM 26.6 °F 20.0 °F 26.6 °F 100% 29.64 in 1.2 mi ESE 5.8 mph - N/A   Overcast
10:55 PM 26.6 °F 19.1 °F 26.6 °F 100% 29.63 in 1.8 mi East 6.9 mph - N/A   Overcast
11:15 PM 26.6 °F 19.1 °F 26.6 °F 100% 29.63 in 3.0 mi East 6.9 mph - N/A   Overcast
11:35 PM 26.6 °F 19.1 °F 26.6 °F 100% 29.62 in 3.0 mi East 6.9 mph - N/A   Overcast
11:55 PM 26.6 °F 18.2 °F 26.6 °F 100% 29.62 in 3.0 mi East 8.1 mph - N/A Rain Light Freezing Rain